Miscellaneous Local Product
Issued by NWS Hastings, NE

Home | Current Version | Previous Version | Text Only | Print | Product List | Glossary Off
Versions: 1 2 3 4 5 6 7 8 9 10 11 12 13 14 15 16 17 18 19 20 21 22 23 24 25 26 27 28 29 30 31 32 33 34 35 36 37 38 39 40 41 42 43 44 45 46 47 48 49 50

000
AXUS43 KGID 182002
MISGRI

GID CWA HOURLY WEATHER ROUNDUP
NATIONAL WEATHER SERVICE HASTINGS NE
200 PM CST SAT NOV 18 2017

NOTE: "FAIR" INDICATES FEW OR NO CLOUDS BELOW 12,000 FEET WITH NO
SIGNIFICANT WEATHER AND/OR OBSTRUCTIONS TO VISIBILITY.

...SOUTH CENTRAL NEBRASKA...

CITY           SKY/WX    TMP DP  RH WIND       PRES   REMARKS
GRAND ISLAND   SUNNY     46  29  51 NW28G33   30.09S
KEARNEY        MOSUNNY   48  27  44 NW22G28   30.11S
HASTINGS       SUNNY     48  28  46 NW24G37   30.10S
ORD            PTSUNNY   47  27  45 NW25G39   30.09S
YORK           MOSUNNY   48  32  53 NW28G36   30.06S
AURORA         MOSUNNY   47  29  50 NW24G33   30.08S
LEXINGTON      MOSUNNY   49  26  40 NW21G30   30.13S
HOLDREGE       PTSUNNY   49  27  43 NW18G28   30.12S
HEBRON         MOSUNNY   52  29  42 NW24G32   30.08R

...NEBRASKA PANHANDLE...

CITY           SKY/WX    TMP DP  RH WIND       PRES   REMARKS
CHADRON        SUNNY     44  17  33 NW20G32   30.17F
ALLIANCE       SUNNY     44  14  29 NW23G29   30.15F
SCOTTSBLUFF    SUNNY     44  12  27 NW14G24   30.19F
SIDNEY         SUNNY     43  16  33 NW22G29   30.19F

...WESTERN AND NORTH CENTRAL NEBRASKA...

CITY           SKY/WX    TMP DP  RH WIND       PRES   REMARKS
VALENTINE      SUNNY     45  22  40 NW23G30   30.12F
AINSWORTH      PTSUNNY   43  27  53 NW21G26   30.11F
ONEILL         SUNNY     41  28  60 NW22G28   30.10S
BROKEN BOW     SUNNY     47  27  45 NW21G28   30.11F
IMPERIAL       SUNNY     47  15  27 NW28G35   30.19F
NORTH PLATTE   MOSUNNY   49  20  31 NW29G35   30.15F
MCCOOK         SUNNY     49  24  37 N26G32    30.17S

...EASTERN NEBRASKA...

CITY           SKY/WX    TMP DP  RH WIND       PRES   REMARKS
NORFOLK        SUNNY     42  27  55 NW26G33   30.04R
SO SIOUX CITY  SUNNY     40  26  57 NW29G36   30.01R WCI  29
TEKAMAH        SUNNY     45  28  51 NW28G36   30.01R
COLUMBUS       SUNNY     47  28  47 NW28G35   30.05R
ALBION         SUNNY     46  29  51 NW26G32   30.07S
OMAHA EPPLEY   MOSUNNY   47  30  51 NW24G38   29.99R
OFFUTT AFB     MOSUNNY   48  30  50 NW22G37   30.00R
MILLARD        MOSUNNY   50  33  53 NW18G29   30.01R
LINCOLN        MOSUNNY   50  29  44 NW30G36   30.04R
NEBRASKA CITY  MOSUNNY   50  33  51 N24G33    29.99S
BEATRICE       MOSUNNY   52  32  47 NW31G37   30.04R
FALLS CITY     MOSUNNY   50  31  48 NW23G40   29.99R

...NORTHERN KANSAS...

CITY           SKY/WX    TMP DP  RH WIND       PRES   REMARKS
GOODLAND       SUNNY     46  15  28 NW21G35   30.21S
HILL CITY      SUNNY     51  22  31 NW24G40   30.18S
NORTON         PTCLDY    48  16  27 NW23G33   30.15S
PHILLIPSBURG   SUNNY     54  19  26 NW20G30   30.15S
SMITH CENTER   MOSUNNY   50  25  37 NW24G32   30.13S
HAYS           MOSUNNY   53  22  29 N28G36    30.15R
RUSSELL        LGT RAIN  54  27  35 N26G35    30.12S
CONCORDIA      SUNNY     52  29  41 NW25G33   30.08R
SALINA         SUNNY     56  28  34 N30G37    30.08R
TOPEKA         MOSUNNY   52  37  56 NW17G31   30.01R



USA.gov is the U.S. government's official web portal to all federal, state and local government web resources and services.